Columbus, GA

4:04 PM EDT on June 27, 2017 (GMT -0400)
Columbus Metro

Weather History for KCSG - April, 2013

Change the Weather History Date:

Tuesday, April 16, 2013

  Actual Average Record
Temperature  
Mean Temperature 75 °F 65 °F  
Max Temperature 86 °F 77 °F 92 °F (1925)
Min Temperature 63 °F 52 °F 32 °F (1950)
Degree Days  
Heating Degree Days 0 3  
Month to date heating degree days 46 65  
Since 1 July heating degree days 1752 2088  
Cooling Degree Days 10 2  
Month to date cooling degree days 40 30  
Year to date cooling degree days 73 57  
Growing Degree Days 24 (Base 50)    
Moisture  
Dew Point 62 °F    
Average Humidity 71    
Maximum Humidity 93    
Minimum Humidity 48    
Precipitation  
Precipitation 0.00 in 0.11 in 2.20 in (1934)
Month to date precipitation 2.17 2.04  
Year to date precipitation 21.20 15.79  
Sea Level Pressure  
Sea Level Pressure 30.15 in    
Wind  
Wind Speed 6 mph (ESE)    
Max Wind Speed 13 mph    
Max Gust Speed 16 mph    
Visibility 10 miles    
Events      
T = Trace of Precipitation, MM = Missing Value Source: NWS Daily Summary

Daily Weather History Graph

Daily Weather History Graph

Search for Another Location

Airport or City:

Trip Planner

Search our weather history database for the weather conditions in past years. The results will help you decide how hot, cold, wet, or windy it might be!

Date:

Astronomy

Apr. 16, 2013 Rise Set
Actual Time 7:08 AM EDT 8:10 PM EDT
Civil Twilight 6:43 AM EDT 8:35 PM EDT
Nautical Twilight 6:13 AM EDT 9:05 PM EDT
Astronomical Twilight 5:42 AM EDT 9:36 PM EDT
Moon 11:35 AM EDT (4/16) 12:58 AM EDT (4/16)
Length of Visible Light 13h 52m
Length of Day
13h 01m
Waxing Crescent, 33% of the Moon is Illuminated
Apr 16
Waxing Crescent
Apr 18
First Quarter
Apr 25
Full
May 2
Last Quarter
May 9
New

Hourly Weather History & Observations

Time (EDT) Temp. Heat Index Dew Point Humidity Pressure Visibility Wind Dir Wind Speed Gust Speed Precip Events Conditions
12:51 AM 66.0 °F - 61.0 °F 84% 30.11 in 10.0 mi East 6.9 mph - N/A   Scattered Clouds
1:51 AM 66.0 °F - 61.0 °F 84% 30.12 in 10.0 mi ESE 4.6 mph - N/A   Mostly Cloudy
2:51 AM 66.0 °F - 61.0 °F 84% 30.12 in 10.0 mi East 4.6 mph - N/A   Mostly Cloudy
3:51 AM 64.9 °F - 60.1 °F 84% 30.12 in 10.0 mi East 4.6 mph - N/A   Partly Cloudy
4:51 AM 64.9 °F - 60.1 °F 84% 30.12 in 10.0 mi East 3.5 mph - N/A   Mostly Cloudy
5:51 AM 64.0 °F - 60.1 °F 87% 30.13 in 10.0 mi East 4.6 mph - N/A   Partly Cloudy
6:51 AM 63.0 °F - 60.1 °F 90% 30.14 in 10.0 mi East 6.9 mph - N/A   Clear
7:51 AM 63.0 °F - 60.1 °F 90% 30.17 in 10.0 mi ESE 8.1 mph - N/A   Overcast
8:17 AM 64.4 °F - 60.8 °F 88% 30.19 in 10.0 mi ESE 6.9 mph - N/A   Scattered Clouds
8:51 AM 64.9 °F - 60.1 °F 84% 30.19 in 10.0 mi East 8.1 mph - N/A   Scattered Clouds
9:51 AM 68.0 °F - 62.1 °F 81% 30.19 in 10.0 mi ESE 8.1 mph - N/A   Partly Cloudy
10:51 AM 73.0 °F - 62.1 °F 68% 30.20 in 10.0 mi SE 8.1 mph - N/A   Mostly Cloudy
11:51 AM 77.0 °F - 61.0 °F 58% 30.20 in 10.0 mi ESE 12.7 mph - N/A   Scattered Clouds
12:51 PM 80.1 °F 81.2 °F 62.1 °F 54% 30.19 in 10.0 mi SE 11.5 mph - N/A   Scattered Clouds
1:51 PM 81.0 °F 81.9 °F 62.1 °F 52% 30.17 in 10.0 mi ESE 6.9 mph - N/A   Clear
2:51 PM 84.0 °F 84.9 °F 63.0 °F 49% 30.15 in 10.0 mi South 9.2 mph 16.1 mph N/A   Scattered Clouds
3:51 PM 84.9 °F 85.4 °F 62.1 °F 46% 30.13 in 10.0 mi East 8.1 mph - N/A   Mostly Cloudy
4:51 PM 84.0 °F 84.9 °F 63.0 °F 49% 30.12 in 10.0 mi SE 6.9 mph - N/A   Mostly Cloudy
5:51 PM 82.9 °F 83.7 °F 62.1 °F 49% 30.12 in 10.0 mi SE 4.6 mph - N/A   Mostly Cloudy
6:51 PM 82.0 °F 83.0 °F 62.1 °F 51% 30.13 in 10.0 mi South 6.9 mph - N/A   Mostly Cloudy
7:51 PM 80.1 °F 81.5 °F 63.0 °F 56% 30.13 in 10.0 mi SSE 6.9 mph - N/A   Clear
8:51 PM 78.1 °F - 63.0 °F 60% 30.14 in 10.0 mi SE 5.8 mph - N/A   Clear
9:51 PM 75.0 °F - 63.0 °F 66% 30.15 in 10.0 mi Calm Calm - N/A   Clear
10:51 PM 75.0 °F - 63.0 °F 66% 30.16 in 10.0 mi Calm Calm - N/A   Clear
11:51 PM 73.0 °F - 63.0 °F 71% 30.15 in 10.0 mi East 3.5 mph - N/A   Clear